Theta_e
313 313 313 312 312 312 312 312 312 311 311 311 311 312 312 312 312 312 312 313 313 314 315 316 317 318 320 322 324 326 326 327 327 327 328 327 327 327 327 328 329 328 329 328 328 329 330 331 331 330 330 330 329 328 328 328 328 328 328 329 330 330 329 329 329 329 329 329 329 329 329 329 329 329 329 328 328 328 327 327 326 324 323 321 312
313 313 312 312 311 311 311 311 311 311 311 311 311 311 311 311 311 312 312 312 312 312 313 313 314 315 317 319 321 323 324 325 326 327 327 327 327 327 327 328 329 328 329 329 329 329 329 331 331 331 330 330 329 328 328 328 328 328 329 330 330 329 329 329 329 329 329 328 329 329 329 329 329 328 329 328 328 328 327 327 326 324 324 323 315
312 312 311 311 310 310 310 310 310 310 310 310 310 310 310 310 311 311 312 312 312 312 312 312 312 313 314 316 318 320 322 323 325 326 326 327 327 327 328 328 328 328 329 329 329 329 329 330 330 330 330 330 329 329 328 329 329 329 328 329 330 330 329 329 329 329 329 328 328 329 329 329 329 328 328 328 328 328 328 327 325 324 323 321 314
311 311 311 310 310 310 309 309 309 309 309 309 309 308 309 309 310 310 311 311 312 312 312 312 312 312 313 313 315 317 319 320 322 323 324 325 326 327 328 328 328 328 329 329 329 328 328 329 329 330 330 330 329 329 328 328 328 328 328 328 329 330 330 329 329 329 329 329 328 328 328 328 329 329 328 328 328 328 327 326 325 324 321 317 313
311 310 310 309 309 309 309 309 309 309 308 308 308 308 308 308 308 309 309 310 311 311 311 311 311 312 312 312 313 315 316 317 319 321 322 323 325 326 327 328 327 328 329 329 329 329 329 328 329 329 330 330 330 329 329 328 327 328 328 328 328 329 329 329 329 330 330 330 328 327 328 329 328 328 328 328 328 328 327 326 325 325 322 317 313
310 309 308 308 308 308 308 308 308 308 307 307 307 306 306 306 306 306 307 308 309 310 310 310 310 311 311 312 312 313 314 315 316 318 319 321 323 324 326 327 327 328 328 328 328 328 329 328 329 329 329 330 330 329 329 328 328 328 328 328 328 328 329 329 330 330 330 330 329 327 328 328 328 328 328 328 329 328 327 326 326 325 323 319 314
308 308 307 307 307 307 307 307 307 306 306 306 305 305 305 305 305 305 305 306 307 308 309 309 309 309 310 311 311 312 312 313 314 315 316 318 320 322 324 325 326 327 328 328 328 328 328 328 329 330 330 330 329 329 329 329 328 328 328 328 328 328 328 329 330 330 329 329 329 328 327 328 327 327 327 328 328 327 327 326 325 324 322 319 315
307 307 307 306 306 306 306 306 306 306 305 305 304 304 304 304 304 304 304 304 305 306 306 307 307 308 309 309 310 311 311 311 311 312 313 315 316 318 321 322 325 326 327 328 328 327 327 328 329 329 329 330 329 329 328 328 328 328 328 328 329 329 328 329 329 329 329 328 328 328 327 328 328 327 327 327 326 325 326 326 324 323 322 318 316
306 306 306 306 306 305 305 305 305 305 304 304 304 304 303 303 303 303 303 303 304 304 304 305 306 306 307 308 308 309 310 310 310 310 311 312 314 315 317 320 322 323 325 327 328 328 328 327 328 328 329 329 329 329 328 328 328 328 329 329 329 329 328 328 329 329 328 328 327 327 327 327 327 327 327 327 326 325 326 325 324 323 321 318 318
306 306 305 305 305 304 304 305 304 304 304 303 303 303 303 303 303 302 302 301 302 303 302 302 303 304 305 306 307 307 308 308 309 310 310 311 312 314 315 317 319 321 322 324 326 328 328 328 328 328 328 329 329 329 328 328 328 328 328 329 329 329 329 329 329 329 328 327 326 327 328 327 327 327 326 327 326 326 326 325 323 322 320 318 319
305 305 305 305 304 304 304 304 304 304 303 303 302 301 302 302 302 302 301 301 301 301 301 301 302 302 303 304 305 305 306 307 308 309 310 311 312 313 314 315 318 319 321 322 325 326 327 328 328 328 328 328 328 328 328 328 328 327 327 328 328 329 329 329 329 329 328 327 327 328 328 328 328 327 326 326 326 326 326 325 324 321 318 318 319
305 305 304 304 304 304 304 304 304 303 303 303 302 301 301 302 302 302 301 300 300 300 300 300 301 301 302 302 303 303 304 305 307 308 309 310 311 312 313 314 316 318 320 322 324 325 326 327 327 328 328 327 326 327 327 328 328 326 324 325 327 328 329 329 329 329 328 328 328 328 327 327 328 327 326 326 327 327 326 325 324 320 317 317 318
304 304 304 304 303 303 303 303 303 303 303 302 301 300 300 301 302 302 301 300 300 300 300 300 300 301 301 301 301 302 303 304 305 306 307 309 310 311 313 314 314 316 319 321 322 324 324 326 327 327 328 327 326 325 325 327 328 326 324 325 327 328 328 328 329 329 328 327 328 327 326 327 328 327 326 326 326 327 326 325 324 320 316 316 317
304 304 304 303 303 303 303 302 302 302 302 302 300 300 299 300 300 301 301 300 299 300 300 300 300 300 300 300 301 301 301 302 303 304 306 307 309 310 312 313 314 315 317 319 321 322 323 324 325 326 327 327 326 325 325 326 327 327 327 327 327 327 328 329 329 329 328 328 328 327 327 327 327 326 326 326 326 327 326 325 324 321 318 316 316
304 303 303 303 302 302 302 302 302 302 302 301 299 299 299 298 299 300 300 299 299 299 300 300 300 300 300 300 301 301 301 301 302 303 304 305 306 308 310 312 313 314 315 317 319 321 322 323 324 325 326 326 326 326 326 326 326 327 328 328 327 326 328 329 329 328 328 328 328 327 327 327 326 326 326 326 326 326 326 325 324 323 320 318 317
303 303 303 302 302 302 301 301 301 301 301 300 299 298 298 298 298 299 299 298 298 299 299 300 300 300 300 300 300 300 300 300 301 301 302 303 304 306 307 309 311 313 314 315 317 319 321 323 324 324 325 326 326 326 326 326 325 327 328 327 326 327 328 329 328 327 327 327 328 327 327 326 326 326 326 326 326 325 324 324 323 322 321 319 317
302 303 303 302 302 301 301 301 301 301 300 300 299 299 298 298 298 298 298 298 298 298 299 299 299 299 299 299 298 298 299 299 299 300 301 301 302 303 305 306 308 310 311 312 314 316 319 321 323 324 325 325 325 326 326 326 325 327 328 327 326 326 328 328 328 327 326 326 327 327 326 325 325 325 325 325 325 324 323 323 323 322 320 318 317
302 302 302 302 301 301 301 300 300 300 300 299 299 299 298 298 298 298 298 297 297 297 298 298 298 298 297 297 297 297 297 298 298 298 299 300 301 302 303 304 305 307 309 310 311 313 315 318 320 322 324 324 325 326 326 326 326 327 328 328 327 327 328 328 328 327 327 326 326 326 325 325 325 326 325 325 325 324 323 323 322 322 320 318 317
302 302 302 301 301 301 301 300 299 299 300 300 299 299 298 298 298 298 298 298 297 297 297 297 297 297 297 297 297 297 297 297 297 297 298 299 300 301 301 302 303 304 306 308 309 310 313 315 317 320 322 324 325 325 326 326 326 326 327 327 327 327 328 327 327 327 327 327 326 326 326 326 326 326 325 325 325 324 324 322 322 321 320 320 319
301 301 301 301 300 301 301 300 299 299 300 300 299 299 298 298 298 298 298 298 297 297 297 297 297 297 297 297 297 297 296 296 296 297 297 297 298 300 300 301 302 303 304 306 307 308 310 312 314 317 319 322 324 325 326 326 325 325 326 327 327 327 327 326 326 327 327 327 326 326 326 326 326 326 325 325 324 324 323 323 323 321 320 320 320
301 301 301 300 300 300 300 300 299 299 299 300 299 299 298 298 298 298 298 298 297 297 297 297 297 297 297 297 297 297 296 296 296 296 296 297 297 299 299 300 301 302 303 304 306 306 308 309 311 313 315 319 322 324 326 326 325 325 326 327 326 326 326 326 325 325 326 326 326 325 325 325 325 325 325 324 324 323 324 324 324 322 321 321 320
300 300 301 300 299 300 300 300 299 299 299 299 299 298 298 298 298 298 297 298 298 297 297 297 297 297 296 296 297 296 296 296 296 296 296 296 296 297 299 299 300 301 302 303 304 305 306 307 309 310 312 314 318 321 325 326 325 324 326 327 326 326 326 325 325 324 324 324 323 323 323 323 324 325 324 324 323 323 324 324 324 321 320 321 320
300 300 300 300 299 299 300 301 300 299 299 299 298 298 298 298 298 298 297 298 298 298 297 297 297 297 297 296 296 296 295 295 295 295 296 296 296 296 298 298 299 300 301 302 302 303 304 306 307 308 309 311 315 319 323 324 324 324 325 325 325 324 324 323 323 322 321 320 321 321 322 322 322 323 322 322 323 323 323 323 322 320 319 319 319
300 300 300 300 299 299 300 300 300 299 298 298 298 298 298 298 298 298 298 297 298 298 298 297 297 297 297 297 296 295 295 295 295 295 295 296 295 296 297 297 298 299 300 301 301 302 303 305 307 308 309 309 312 316 318 320 321 322 323 323 322 322 321 321 320 319 319 319 320 321 321 321 320 321 321 321 320 320 320 319 318 317 318 318 317
299 299 299 299 299 299 299 300 300 299 298 298 299 299 299 298 298 298 298 298 297 297 297 297 297 297 297 296 296 295 295 295 294 294 295 295 296 295 296 297 297 298 299 300 300 301 302 304 306 308 309 309 310 312 313 315 317 318 319 320 320 319 320 319 319 318 319 319 320 320 319 318 317 317 318 317 317 316 315 315 314 315 316 316 315
299 299 299 299 299 299 299 299 299 299 299 299 299 299 299 299 298 298 298 298 297 297 297 297 297 297 297 296 295 295 295 295 294 294 294 295 295 296 296 296 297 297 298 299 299 300 301 302 304 306 308 309 309 309 310 311 312 313 314 317 317 317 318 318 317 317 317 317 317 317 315 314 313 313 313 313 313 313 313 313 313 313 313 314 314
299 299 299 299 299 299 299 299 299 299 299 299 299 299 299 298 298 298 298 298 297 297 297 297 297 297 296 296 295 295 295 295 294 294 294 294 295 295 296 296 297 297 297 298 299 300 300 301 303 304 305 307 309 308 308 309 309 309 309 311 313 314 315 314 313 313 312 313 313 313 311 310 310 309 308 308 309 309 309 310 310 308 308 308 307
300 299 299 299 300 300 299 299 299 298 299 299 298 298 298 298 298 298 298 298 297 297 297 297 297 297 296 295 295 295 295 295 294 295 294 294 294 295 296 296 296 297 297 297 298 299 300 301 302 303 304 305 307 307 308 308 308 307 307 307 309 310 310 310 310 309 308 307 308 308 306 305 304 304 303 303 303 302 303 304 304 303 302 303 302
300 300 300 299 300 299 299 299 299 299 299 299 298 298 298 298 298 298 298 297 297 297 297 297 297 296 295 294 294 295 295 295 294 295 294 293 293 294 295 296 296 296 297 297 297 298 299 300 301 301 302 302 303 304 304 304 305 305 305 306 306 306 306 306 306 305 304 304 304 305 304 303 302 301 301 300 300 299 299 300 299 299 299 299 299
299 300 300 300 299 299 299 299 299 299 299 298 298 298 298 298 298 297 297 297 296 297 297 297 297 296 295 294 293 294 295 295 295 294 294 293 293 293 294 295 295 296 297 297 297 297 297 298 298 299 299 300 300 301 301 302 302 302 303 303 303 303 303 303 303 303 303 303 303 303 303 303 303 302 301 301 300 300 299 299 299 298 298 298 298
297 299 300 300 299 299 299 299 298 298 299 298 298 298 298 298 297 297 297 296 296 297 298 297 297 296 296 295 294 294 294 295 295 294 294 293 293 294 294 295 295 295 296 297 297 297 297 297 297 297 297 298 298 299 299 300 301 301 301 302 302 302 302 302 301 301 301 301 301 302 302 302 302 302 301 301 300 300 299 299 298 298 298 298 298
298 297 298 299 300 299 299 299 298 298 298 298 298 298 298 297 297 297 297 296 296 297 298 297 297 296 296 296 295 294 294 295 295 294 293 293 294 294 295 294 294 295 295 296 297 297 297 297 296 296 296 296 296 297 297 298 299 299 300 300 300 300 301 300 300 301 301 301 301 301 301 301 301 301 301 300 300 299 299 299 299 299 299 299 299
299 296 295 298 299 300 299 299 298 298 298 298 298 298 297 297 297 297 297 296 296 296 297 297 297 296 296 296 295 294 294 294 294 293 293 293 294 294 294 294 294 294 294 295 295 295 296 296 296 296 296 296 296 296 296 296 297 297 298 298 298 298 298 298 298 299 299 299 299 299 299 299 299 299 299 299 299 299 299 299 300 300 299 299 299
300 297 295 296 298 299 299 298 298 298 298 298 298 297 297 297 297 297 297 296 296 296 296 297 297 296 296 296 295 294 294 294 293 293 293 293 293 294 294 294 294 294 294 294 294 294 294 295 295 295 295 295 295 295 295 295 296 296 296 296 296 296 296 296 297 297 297 297 297 298 298 298 298 298 298 299 299 299 299 299 299 299 299 299 299
299 298 296 295 297 299 298 297 297 298 297 297 298 297 297 297 297 297 297 297 296 296 296 296 296 296 296 296 295 295 294 293 293 293 293 293 293 294 294 294 295 295 294 294 294 294 294 294 294 294 295 295 295 295 295 295 295 295 295 295 295 296 296 296 296 296 296 297 297 297 297 297 297 297 297 298 298 298 299 299 299 299 299 299 298
299 298 297 296 297 298 297 297 298 298 297 297 297 297 297 297 297 297 297 297 296 296 296 296 296 296 296 296 296 295 295 293 292 293 293 293 293 293 294 295 295 295 295 295 294 294 294 293 293 293 294 294 294 294 294 295 295 295 295 295 295 295 295 295 295 295 295 295 295 295 295 296 296 296 297 297 297 298 298 298 298 298 298 298 298
298 298 297 296 297 297 297 296 297 298 298 297 297 297 297 297 297 297 297 297 296 296 296 296 296 296 296 296 296 295 295 294 292 292 293 293 292 293 294 295 295 295 295 295 294 294 294 293 293 293 293 293 293 293 293 293 293 293 293 293 294 294 293 293 293 294 294 294 294 294 294 294 295 295 296 296 297 297 297 297 297 297 297 297 297
298 298 297 296 297 297 296 297 297 298 298 298 297 296 296 297 297 296 297 297 297 296 296 296 296 296 296 296 296 296 295 295 293 293 293 293 292 293 294 294 294 294 294 294 294 294 294 293 293 293 292 292 292 292 292 292 293 293 293 293 293 293 293 293 293 293 293 293 293 294 294 294 294 294 295 296 297 296 296 296 296 296 296 296 296
298 298 297 296 297 296 296 296 297 298 298 297 297 297 296 296 296 296 296 296 296 297 297 297 296 296 296 296 296 296 295 295 294 293 292 293 293 293 293 293 293 293 294 294 294 294 294 293 293 293 293 293 292 292 292 292 293 293 293 293 292 292 293 293 293 293 293 293 293 293 293 294 294 294 295 295 296 296 295 295 295 296 296 296 295
298 298 297 297 297 296 296 296 296 297 297 296 296 296 297 297 297 297 296 296 296 297 297 297 297 297 296 296 296 296 295 295 294 293 292 293 293 293 293 293 294 293 293 293 293 293 293 293 293 293 293 293 292 292 292 292 292 292 292 292 292 292 293 293 293 293 293 293 293 293 293 294 294 295 295 295 295 295 295 295 295 295 295 295 295
298 298 298 298 297 297 296 296 296 296 296 295 295 296 296 297 297 297 296 296 296 297 297 297 297 297 296 296 296 295 295 294 294 293 292 293 293 293 293 293 294 293 293 293 293 293 293 293 293 293 293 293 293 292 292 292 292 292 292 292 292 292 293 293 293 293 293 293 293 293 293 293 294 294 294 294 294 294 294 294 294 294 294 295 295
298 298 298 298 297 297 296 296 295 295 295 295 295 296 296 297 297 297 296 296 296 296 297 297 297 297 296 296 296 295 294 294 294 293 292 293 294 293 293 293 293 293 293 293 292 293 293 293 293 293 293 293 293 293 292 292 292 292 292 292 292 292 292 292 293 293 293 293 293 293 293 293 293 293 294 294 294 294 294 294 294 294 294 294 295
298 298 297 298 297 297 296 296 296 295 295 295 296 296 295 296 296 297 296 296 296 296 297 297 297 297 296 296 295 295 295 294 294 293 292 293 294 293 293 293 293 293 293 293 293 293 293 293 293 293 293 293 293 292 292 292 292 292 292 292 292 292 292 292 292 292 293 293 293 293 293 293 293 293 293 294 294 294 294 294 294 294 294 294 294
298 297 297 297 297 297 296 296 296 295 295 295 296 295 295 295 296 296 296 296 296 296 297 297 296 296 296 296 296 295 295 295 294 292 292 292 294 294 293 293 293 293 293 293 293 293 293 292 292 292 292 292 292 292 292 292 292 292 292 292 292 292 292 292 292 292 292 293 293 293 293 293 292 292 293 293 293 293 294 294 294 294 294 294 294
298 297 297 297 297 296 296 296 296 296 295 296 296 295 295 295 295 296 296 296 296 296 296 296 296 296 296 296 296 295 295 295 294 293 292 292 293 293 293 293 293 293 293 293 293 293 293 293 292 292 292 292 292 292 292 292 292 292 292 292 292 292 292 292 292 292 292 292 292 292 293 293 293 292 292 293 293 293 293 293 293 293 293 294 294
298 297 297 297 297 296 296 296 296 295 296 296 296 295 295 295 296 296 296 296 296 296 296 296 296 296 296 296 296 295 295 295 294 293 292 292 292 292 293 293 293 293 293 293 293 293 292 292 292 292 292 292 292 292 292 292 292 292 292 292 292 292 291 292 292 292 292 292 293 293 293 293 292 292 292 292 292 292 293 293 293 292 293 293 294
298 297 297 297 297 296 296 296 295 295 296 296 296 295 295 296 296 296 296 296 296 296 296 296 296 296 296 296 296 295 295 294 294 293 293 292 291 292 292 292 293 293 293 293 293 292 292 292 292 291 291 292 292 292 292 292 292 292 292 291 292 291 291 290 291 292 292 292 292 292 292 292 292 292 292 292 292 292 292 292 292 292 292 292 293
298 297 297 297 297 296 296 296 295 295 296 296 295 295 296 296 296 296 295 295 295 296 296 295 295 296 296 296 296 295 295 294 294 293 293 292 292 291 292 292 292 292 293 293 293 293 292 292 291 290 290 291 292 292 291 291 291 291 291 291 291 291 290 289 290 291 292 292 292 292 292 292 292 292 292 292 292 292 292 292 292 292 292 292 292
298 297 297 297 297 296 296 296 295 295 296 296 295 295 295 296 296 295 295 295 295 295 295 295 295 296 296 296 295 295 295 294 294 293 293 293 292 292 292 292 291 292 292 292 292 293 292 291 290 289 289 290 290 290 290 290 290 291 291 291 290 290 289 288 288 290 292 292 292 292 292 292 292 292 292 292 292 292 292 292 292 292 292 292 291
297 297 297 297 297 296 296 296 296 296 296 296 296 295 295 295 296 295 295 295 295 295 295 295 295 295 295 295 295 295 295 294 294 293 293 293 293 293 292 292 292 291 291 291 292 292 292 291 290 290 290 290 290 290 290 290 290 290 290 290 289 288 287 287 288 290 291 292 292 292 292 292 292 292 292 292 292 292 292 292 292 292 292 292 291
298 297 297 297 297 296 296 296 296 296 296 296 296 295 295 295 295 295 295 295 295 295 295 295 295 295 295 295 295 295 295 294 294 293 293 293 293 293 293 293 292 292 292 291 291 291 291 291 291 290 290 290 290 290 290 290 290 289 289 289 289 289 288 287 287 289 291 291 292 292 292 292 292 292 291 291 291 291 291 291 291 292 292 291 291
Wind_Speed
18 18 18 17 17 17 17 18 20 20 20 21 22 22 22 22 22 22 21 21 20 19 18 17 16 15 14 13 14 15 16 16 16 17 18 19 20 20 20 21 22 22 21 22 23 25 27 28 28 29 29 30 31 31 29 29 29 30 30 30 31 31 30 30 30 29 25 25 28 29 29 29 30 30 30 28 28 27 25 24 22 22 22 22 22
17 16 16 17 19 19 19 19 20 20 21 22 22 22 23 23 23 23 23 22 22 21 20 20 18 17 15 14 14 13 14 15 15 16 17 17 18 18 20 21 21 21 22 25 26 25 26 28 27 27 28 30 30 30 29 29 30 30 30 30 30 31 32 31 30 29 27 25 26 30 31 31 31 32 32 30 29 29 27 25 24 24 23 23 24
15 14 15 17 19 20 21 22 21 22 23 24 23 23 23 23 23 23 23 23 23 23 22 22 20 18 16 15 13 13 14 15 15 16 17 18 20 20 20 20 20 19 20 24 27 26 25 27 28 26 28 30 30 29 29 29 31 31 30 30 30 32 33 31 29 29 27 25 27 32 34 33 32 33 33 32 31 30 28 27 25 24 24 24 25
14 15 15 17 19 20 21 22 23 24 25 25 25 25 24 24 23 24 24 24 24 24 24 23 22 21 18 16 15 13 13 16 16 16 17 19 21 21 21 21 20 19 20 21 24 24 22 24 27 27 28 30 30 29 29 29 30 31 31 31 31 33 33 31 30 29 27 26 27 32 35 35 35 35 34 33 32 30 29 27 25 24 24 24 25
14 15 16 17 19 20 21 22 23 25 26 26 26 26 25 25 24 24 25 25 24 24 25 25 24 24 22 20 17 13 13 17 18 18 19 20 21 22 21 21 20 19 19 20 21 22 22 23 25 28 30 30 30 29 29 29 30 32 33 32 31 34 33 31 31 31 29 27 26 29 33 34 35 35 33 32 31 31 30 28 26 25 24 24 24
14 16 17 19 21 21 22 23 23 24 25 26 26 26 26 26 25 25 26 26 25 25 25 26 26 26 24 22 19 15 14 17 19 20 22 23 23 22 21 20 19 19 20 21 21 21 22 24 25 27 29 30 30 29 28 28 30 32 33 32 33 34 33 33 33 33 31 27 25 28 32 33 32 32 32 33 34 34 33 31 28 27 25 25 24
17 19 21 23 24 24 24 24 24 25 25 26 26 26 26 26 26 27 28 27 27 26 26 27 28 28 26 25 22 19 17 19 21 22 24 25 25 25 24 22 21 20 20 21 22 21 21 23 25 26 28 30 30 29 28 28 29 31 32 32 33 35 34 35 35 34 32 29 28 29 29 29 29 30 33 35 36 35 35 33 31 29 27 26 26
23 24 25 27 27 26 25 25 26 27 27 28 28 28 29 28 27 27 28 29 28 28 28 28 29 29 28 27 26 24 23 23 24 25 26 26 26 27 26 25 24 22 20 20 21 22 21 22 24 25 27 28 29 29 28 28 29 31 32 33 34 35 36 36 36 35 34 34 33 30 27 27 28 30 34 36 35 35 35 34 34 32 30 28 26
27 27 27 28 28 28 27 28 29 29 29 30 30 30 31 31 30 29 30 30 29 28 28 29 29 30 30 30 29 28 29 30 30 29 28 28 29 28 28 27 28 27 25 22 22 23 22 22 23 24 24 25 26 27 29 29 30 31 32 33 34 35 36 38 38 37 36 36 35 31 29 31 30 30 35 38 37 35 35 35 34 32 30 28 25
26 26 27 27 28 29 29 30 31 31 32 33 32 32 32 32 32 32 33 33 31 29 29 30 31 32 32 32 32 31 32 33 33 32 30 28 28 29 28 28 28 29 28 26 24 24 24 24 23 23 24 24 26 27 29 31 31 31 31 33 34 35 37 38 38 36 36 36 35 33 33 33 32 31 35 38 38 35 36 37 35 32 30 29 26
23 24 25 25 27 29 30 31 31 32 33 34 34 33 32 32 32 33 35 36 34 31 31 31 32 34 34 34 34 33 34 34 34 34 34 32 29 27 27 26 25 26 27 26 26 26 27 26 24 23 24 24 25 26 29 31 32 31 31 33 34 35 37 38 37 36 36 35 34 35 36 36 34 33 33 36 38 37 37 38 35 33 34 33 30
22 22 23 24 25 28 29 29 30 30 31 33 34 34 32 31 31 33 35 37 35 33 32 32 33 35 35 36 35 35 35 36 35 35 36 36 34 29 26 23 22 22 23 24 25 26 26 25 24 23 22 23 24 24 26 30 31 30 31 33 34 34 35 37 37 38 38 37 36 37 39 37 36 35 34 35 37 38 38 38 36 35 38 37 34
22 22 23 24 24 25 26 27 28 28 29 31 33 34 33 31 30 31 34 36 35 34 33 33 34 35 36 37 38 38 38 38 37 36 36 37 38 33 26 21 19 18 19 21 23 24 24 23 25 24 22 22 24 24 26 29 30 31 32 33 32 32 33 36 37 37 37 38 37 38 39 37 36 36 36 36 36 37 40 41 38 36 39 40 36
21 21 23 24 24 24 25 27 27 27 28 29 32 34 35 33 30 29 32 35 35 34 34 34 34 35 36 37 39 40 41 41 41 40 38 37 39 37 28 21 17 15 16 17 19 21 22 21 23 24 23 24 25 25 25 27 29 31 32 32 30 31 34 36 34 34 35 35 34 35 36 35 34 35 36 35 35 36 38 41 41 39 39 39 35
20 20 22 24 25 24 25 26 26 26 26 28 31 34 36 35 32 29 29 33 35 34 34 34 34 35 36 36 38 39 40 42 42 43 42 39 39 39 34 26 20 16 15 14 15 18 20 20 20 20 22 25 26 26 26 26 27 29 30 30 29 31 35 36 32 30 32 32 32 33 31 29 30 33 34 34 34 34 33 35 39 40 38 38 37
19 18 20 24 25 24 24 25 25 26 26 28 31 33 36 36 34 31 30 32 35 35 34 34 34 36 37 38 40 41 41 42 43 44 44 43 40 39 39 35 27 21 18 16 14 15 17 20 20 20 21 23 25 26 27 27 27 28 28 28 29 30 33 34 31 28 29 30 30 29 26 24 26 30 30 31 33 33 29 31 37 40 39 40 41
19 17 19 23 25 25 25 25 26 26 27 30 31 32 34 35 34 32 32 33 35 35 34 34 35 37 39 40 42 43 43 44 45 45 44 44 42 40 40 40 36 29 24 20 18 16 15 16 20 22 23 23 24 26 28 29 28 28 28 28 29 29 30 31 31 30 30 30 28 27 25 23 24 27 29 30 31 32 30 31 36 38 39 42 43
19 17 19 22 24 25 26 26 27 27 28 30 32 32 32 33 32 32 33 33 34 34 33 34 35 36 38 39 40 41 43 43 44 45 45 44 43 41 40 40 39 37 32 27 22 20 18 16 17 21 25 25 26 28 30 31 31 31 30 30 30 29 30 31 32 32 32 31 29 26 25 25 25 28 30 31 32 34 33 33 33 35 40 44 43
18 18 18 21 23 25 26 27 28 27 26 27 30 31 31 31 31 30 31 32 33 33 33 34 35 35 36 38 39 40 42 42 43 44 45 44 44 43 41 40 40 40 38 33 28 23 20 19 18 20 24 26 27 28 30 32 33 32 31 32 31 30 31 30 31 33 32 31 30 29 28 27 27 29 31 32 32 33 34 34 32 34 39 41 40
16 16 16 19 22 23 24 26 27 27 25 25 27 29 30 30 31 29 29 30 31 33 34 34 35 36 36 37 39 40 41 42 43 43 43 43 43 43 42 41 40 40 38 35 31 27 23 21 20 19 20 24 28 30 29 30 32 32 32 33 31 28 28 29 31 33 32 29 29 30 30 29 29 30 30 29 27 28 31 33 32 33 37 37 36
16 16 15 18 22 22 22 24 26 26 25 24 25 28 30 31 31 29 28 28 29 31 33 33 34 35 36 36 38 39 41 42 43 42 41 41 41 41 41 39 38 38 37 34 32 31 28 26 24 22 19 20 26 30 30 28 30 31 33 33 29 25 27 30 32 32 29 28 28 27 27 28 29 29 27 26 25 27 30 32 32 34 37 37 37
15 15 15 18 21 19 18 21 24 25 25 26 26 28 30 32 31 30 30 29 28 29 31 33 34 34 35 36 37 38 40 41 42 41 40 39 39 39 38 37 35 35 35 34 32 31 29 28 27 25 24 22 20 26 30 27 26 29 32 31 28 27 29 32 32 28 25 24 23 22 22 24 25 25 24 23 24 26 27 28 28 27 27 28 32
12 14 15 18 20 18 15 16 21 25 26 26 27 28 30 32 31 31 31 31 30 30 30 32 33 33 34 36 37 39 41 41 41 41 38 37 37 36 36 35 33 32 32 33 32 31 28 26 25 25 24 24 19 20 23 23 25 29 30 28 27 28 29 29 28 24 20 19 19 19 20 21 21 21 21 20 22 23 23 24 23 22 22 23 25
12 14 15 16 17 18 16 14 17 23 25 25 26 27 29 32 32 32 33 33 33 32 31 32 34 34 34 36 37 39 41 41 41 41 38 36 35 35 35 35 33 30 28 28 29 30 28 24 22 22 21 19 13 9 12 17 23 28 29 27 27 27 26 25 23 20 18 19 19 19 18 18 18 18 17 17 18 18 18 16 14 15 21 24 23
13 13 14 15 16 17 17 14 16 22 24 24 25 26 27 31 32 33 33 34 34 34 33 34 34 34 33 35 37 39 40 40 41 42 41 37 34 34 35 35 34 32 29 26 24 25 25 23 20 18 18 15 9 6 11 16 21 24 26 27 26 26 24 22 20 20 21 22 20 19 18 17 17 17 16 15 15 15 14 13 14 15 19 21 20
13 13 13 15 16 17 16 15 16 20 22 22 23 24 26 29 31 32 33 33 33 34 34 35 35 33 33 34 36 37 38 39 41 43 43 41 37 35 34 34 34 34 33 29 24 20 21 22 19 15 15 14 12 12 17 19 22 26 28 28 27 26 23 22 22 23 24 23 21 19 19 20 19 19 18 17 17 16 15 17 19 20 21 22 22
13 13 12 13 14 15 16 17 18 18 19 21 22 23 26 28 29 31 31 31 32 33 34 35 35 33 33 34 35 36 37 38 40 42 43 42 39 37 35 34 34 34 35 34 28 21 17 18 18 15 12 11 9 10 13 16 19 23 28 30 29 25 23 22 23 23 23 22 22 21 21 21 21 21 21 20 19 18 18 19 22 23 23 24 25
13 13 13 12 12 13 15 17 19 18 18 20 22 23 25 27 28 28 28 29 31 31 33 34 34 32 33 34 34 34 34 35 37 39 39 39 39 37 35 34 32 32 33 33 30 23 16 12 14 15 15 13 12 10 13 16 18 19 22 27 28 25 24 23 22 23 24 25 24 24 24 23 23 23 22 22 21 20 18 19 21 22 22 23 26
10 12 13 13 12 13 13 14 16 18 18 19 20 22 24 26 26 26 26 28 30 29 30 32 32 32 34 35 33 32 31 32 34 35 34 35 36 35 34 32 30 29 30 30 29 27 22 18 17 18 18 19 20 19 19 20 20 20 21 24 26 26 25 24 25 26 28 29 30 30 29 28 28 28 28 27 26 24 22 22 23 24 23 24 27
7 9 12 13 13 13 14 14 13 14 17 19 19 20 22 24 24 24 25 28 29 27 27 30 32 32 34 37 34 29 25 26 30 32 31 33 33 31 30 30 28 25 26 26 27 29 30 28 26 23 21 20 20 20 19 19 19 20 21 22 24 25 26 26 27 27 28 30 31 32 32 33 33 33 33 34 33 31 29 28 28 28 28 29 29
10 7 8 11 13 13 13 15 14 12 13 15 17 18 19 21 21 21 23 26 27 24 23 28 31 31 33 37 38 31 24 24 28 30 30 31 29 26 26 28 27 24 24 25 26 29 30 30 30 28 25 22 20 19 17 15 15 14 14 15 16 17 19 20 21 22 24 26 28 29 31 33 34 34 34 35 34 31 28 25 24 24 25 25 25
13 10 6 7 10 11 12 13 15 13 11 13 16 17 16 17 19 20 21 24 25 22 21 26 31 31 31 35 38 34 28 26 29 31 31 30 26 22 24 27 27 24 22 24 26 28 28 28 29 28 26 24 22 19 17 16 15 13 11 11 11 11 12 13 14 14 17 19 21 22 23 24 24 25 25 25 24 22 19 17 16 17 18 19 19
12 14 10 6 6 11 13 13 14 14 12 13 17 18 16 16 17 18 19 22 24 22 21 25 29 30 30 33 36 34 29 27 29 32 31 27 23 21 22 26 27 25 24 25 27 28 27 26 26 26 25 24 22 20 19 18 16 15 15 15 15 15 14 14 14 14 15 16 16 17 17 17 17 17 17 17 18 18 18 19 19 20 21 22 22
9 15 16 9 3 7 13 13 13 15 14 13 16 17 15 15 16 16 17 21 23 23 22 23 27 29 30 31 34 34 31 29 31 32 29 24 21 20 20 23 26 26 27 28 28 27 27 26 25 24 23 23 22 21 20 19 18 18 17 16 16 16 16 16 17 18 19 19 19 20 20 19 19 19 20 20 20 20 21 21 21 22 23 24 24
8 13 18 13 5 6 12 12 12 15 15 13 14 14 13 14 16 15 17 20 23 23 21 21 24 28 29 30 32 34 33 32 32 31 28 23 21 19 20 22 25 26 27 28 27 26 26 25 24 23 22 22 21 20 20 20 19 19 18 18 17 17 16 16 17 17 17 17 17 18 18 18 17 17 18 19 19 19 20 20 19 20 21 21 20
8 12 16 14 8 9 13 13 11 13 14 13 12 12 12 15 16 15 16 20 21 21 21 21 22 25 27 29 31 33 33 32 32 31 27 22 21 21 21 23 23 23 24 25 25 24 24 24 23 23 23 23 23 22 21 21 20 20 19 19 19 19 18 18 18 17 16 16 16 16 16 17 16 15 15 17 17 17 18 18 19 19 19 19 18
8 10 13 14 11 11 13 13 11 11 11 11 13 14 13 13 14 15 16 18 19 20 21 21 22 24 26 28 31 32 31 31 32 32 28 22 20 20 20 22 23 22 22 22 22 22 23 22 22 23 24 24 25 24 23 23 23 23 22 22 21 21 20 19 18 17 17 16 16 16 16 17 17 16 15 16 17 17 17 16 16 17 17 16 16
7 8 11 13 12 11 12 12 11 11 10 12 16 18 14 11 12 15 16 15 17 19 20 21 21 23 25 27 29 30 30 30 32 34 30 23 20 19 19 19 21 22 21 22 22 21 20 19 20 21 22 23 23 23 23 23 23 22 22 22 22 21 21 20 19 18 17 16 16 16 16 17 17 17 16 16 17 18 17 15 14 15 15 14 13
6 7 8 10 10 10 11 11 10 10 12 14 16 16 14 12 14 16 16 15 16 17 18 19 21 22 24 26 27 29 30 31 32 34 31 23 19 19 19 17 16 18 19 20 21 21 19 18 18 19 20 20 20 20 20 20 19 19 19 19 19 20 20 19 19 18 18 18 18 17 16 16 17 18 17 16 16 16 16 14 13 14 14 14 13
5 6 6 8 9 10 11 11 9 10 13 15 15 16 14 11 11 14 17 18 17 17 17 19 21 22 23 24 25 27 28 29 31 32 29 22 17 17 18 16 15 15 17 18 18 18 19 18 18 18 19 19 20 19 18 18 18 17 16 15 15 16 17 17 17 17 17 17 18 17 16 15 15 16 15 15 15 15 15 14 13 12 13 14 14
2 3 3 6 8 9 10 10 9 10 13 15 16 17 15 11 9 12 17 18 17 17 18 18 19 21 22 22 23 24 25 27 29 30 27 22 17 15 15 16 15 14 14 16 16 15 15 15 15 16 16 17 16 16 15 15 15 16 15 14 13 12 13 13 14 14 14 14 14 15 15 14 13 12 14 16 16 15 14 13 13 13 13 14 14
2 2 3 4 6 9 11 10 9 10 13 13 13 14 15 12 9 11 15 17 16 16 17 17 18 20 20 19 20 22 22 25 29 29 24 22 19 14 11 12 13 12 12 15 15 13 13 13 12 12 13 13 12 12 12 13 13 13 14 14 13 12 12 12 12 11 11 11 12 13 13 13 11 10 12 15 15 14 12 12 13 13 13 13 14
4 5 4 3 7 11 10 8 9 11 12 11 11 11 13 14 11 9 12 16 16 15 16 17 18 19 18 17 18 19 20 24 29 27 23 22 22 16 10 8 9 9 10 11 11 11 12 12 12 11 12 12 11 11 11 11 12 11 11 11 12 13 12 12 11 11 10 11 12 12 12 13 12 10 9 11 11 10 9 10 10 11 10 11 13
3 4 4 2 8 11 9 8 10 11 10 11 11 9 11 14 11 8 10 15 17 16 16 17 18 17 16 16 18 18 19 24 28 26 23 22 22 18 12 9 7 8 8 8 8 9 9 10 10 11 11 10 9 9 9 9 9 8 8 8 8 8 9 9 9 9 9 9 10 11 11 11 12 11 10 9 9 9 10 10 9 9 9 9 12
3 4 2 2 6 8 8 8 9 9 9 11 11 9 10 12 9 7 10 16 18 17 16 16 16 16 16 17 18 18 19 23 25 25 24 23 21 20 16 11 7 7 8 9 8 8 7 6 7 8 7 6 7 8 8 8 7 7 7 7 6 5 4 4 5 7 7 7 9 10 9 9 9 10 10 9 9 9 9 9 8 7 8 10 12
2 4 1 3 6 8 8 7 8 8 10 10 10 10 12 11 8 8 12 15 16 16 16 16 15 15 16 17 17 16 18 22 23 24 25 23 20 18 18 14 10 9 8 8 8 9 8 7 7 7 6 5 4 6 8 8 7 7 7 8 7 6 3 1 1 3 5 6 8 8 7 7 7 7 7 7 7 8 8 8 7 7 7 11 13
2 3 0 3 7 8 7 6 7 9 10 9 8 10 11 9 8 11 14 15 13 13 14 15 15 15 16 17 15 14 16 20 22 22 24 24 20 17 17 16 13 11 9 8 8 9 8 8 7 7 5 4 4 5 7 8 7 6 6 6 7 8 6 3 4 3 1 4 6 6 4 5 6 7 7 7 7 7 8 9 9 9 9 10 11
2 2 1 2 6 7 7 6 6 8 10 10 10 9 8 7 9 13 16 16 13 11 11 13 15 16 16 16 14 13 15 18 20 21 21 21 20 19 18 17 15 13 11 10 9 9 8 7 6 5 3 4 4 5 6 6 5 5 6 6 8 9 8 4 4 6 4 3 6 6 6 5 6 6 7 7 6 5 6 8 10 11 10 10 9
1 2 1 2 4 4 5 5 5 6 10 12 11 10 8 8 12 15 17 17 16 13 11 11 13 15 16 14 12 12 14 16 18 19 19 19 19 19 18 18 17 16 14 11 10 10 9 7 6 4 3 3 5 7 8 8 8 7 8 9 10 10 8 5 4 6 7 5 5 6 6 5 5 5 5 4 4 4 5 8 10 9 7 7 7
3 2 2 4 4 4 5 5 6 8 10 12 12 11 9 9 13 15 15 15 15 13 11 10 10 13 15 13 10 11 13 15 16 17 17 18 19 19 18 17 17 18 17 15 12 10 8 6 5 5 5 5 6 8 10 11 11 10 9 10 10 9 6 4 4 6 8 8 7 6 6 6 5 4 4 4 5 6 7 8 8 7 5 5 6
6 1 3 5 6 6 6 6 7 8 10 11 12 11 9 9 12 14 13 13 13 12 11 9 9 11 13 12 10 10 11 13 14 15 15 17 20 20 19 17 16 16 18 17 15 11 9 7 6 5 6 7 7 8 10 12 13 12 11 10 9 8 5 3 4 6 9 10 9 7 7 7 6 6 5 4 4 6 7 7 7 7 6 6 7
Wind_Direction
36 38 33 29 30 33 32 29 30 30 24 22 23 20 15 15 14 12 12 10 5 359 353 348 346 339 321 305 300 304 311 317 322 323 320 317 315 311 307 304 300 295 287 279 273 267 264 262 258 256 251 246 245 242 241 243 243 242 242 237 232 232 228 224 226 225 222 223 221 214 214 219 219 219 221 220 217 217 218 220 220 221 223 221 216
38 37 33 29 29 32 32 31 30 27 23 22 23 18 14 16 14 11 12 12 9 6 2 358 356 351 341 322 303 301 313 316 314 314 311 307 306 304 301 301 300 297 288 282 279 273 267 263 259 254 249 244 244 243 241 242 242 242 243 238 232 230 227 225 227 228 226 224 222 216 213 217 220 220 221 221 219 216 217 221 221 221 225 222 217
31 30 31 31 31 32 32 30 27 25 23 22 20 16 15 16 15 13 15 15 13 11 8 5 3 358 353 342 324 314 311 304 302 306 303 298 296 296 297 298 299 297 291 284 280 276 271 266 260 253 247 243 243 243 243 241 241 242 243 241 238 233 228 225 227 231 227 219 217 214 211 213 220 223 222 222 222 219 219 221 217 216 220 219 217
28 27 31 33 32 35 34 29 27 26 23 20 18 16 16 17 17 16 18 18 17 16 13 11 8 2 358 353 346 338 319 300 294 297 298 295 294 294 295 297 295 295 295 290 284 279 272 266 261 253 246 243 243 243 241 239 240 240 240 239 239 238 233 226 226 231 229 221 216 212 212 213 216 219 222 220 219 220 220 218 214 214 218 218 216
28 27 32 34 34 37 35 29 30 30 24 20 19 18 17 18 19 19 20 21 23 22 19 16 13 8 3 358 353 351 330 306 294 290 291 291 292 292 293 294 294 292 292 293 291 286 276 267 263 256 248 243 242 241 238 237 237 238 240 240 238 239 238 231 227 228 226 225 223 216 214 214 210 213 220 221 218 218 218 218 218 220 221 220 217
28 31 34 37 37 38 35 30 32 32 27 23 21 20 19 19 21 22 20 21 24 25 25 23 20 16 11 4 357 351 332 314 306 299 292 288 288 290 289 289 289 288 286 286 287 285 277 270 266 259 251 245 241 239 239 238 238 239 241 241 239 238 238 235 231 228 223 223 226 220 214 216 216 216 220 221 219 216 214 215 219 223 225 222 218
34 39 39 39 39 38 36 34 33 31 29 27 24 23 21 20 23 25 21 19 20 22 23 23 22 21 18 14 7 359 344 329 321 313 303 294 289 288 288 287 285 284 283 282 283 283 278 271 266 262 255 248 243 241 241 240 240 240 240 241 240 238 236 234 233 232 229 226 226 222 216 218 220 219 219 219 217 213 211 211 213 218 224 224 221
42 41 39 38 37 36 37 37 36 33 29 26 23 23 24 24 26 27 21 16 16 17 19 18 18 19 19 19 16 11 3 353 342 331 321 310 299 292 289 287 285 283 282 280 280 282 280 272 266 263 258 251 245 242 241 242 241 241 240 240 240 239 236 234 232 234 235 232 228 227 223 219 217 216 217 217 213 210 212 214 214 214 219 222 222
42 39 38 38 35 34 38 38 37 35 31 27 24 23 24 25 26 27 23 17 14 15 16 15 13 14 15 16 16 15 12 7 1 352 339 324 313 304 296 289 286 285 284 282 278 277 277 274 268 264 259 252 247 242 239 239 240 240 241 239 239 240 237 234 232 233 233 230 228 227 224 220 219 217 216 216 217 216 214 215 216 216 219 220 219
43 40 39 38 34 35 40 40 37 34 30 28 27 25 24 23 24 26 24 20 17 17 18 14 11 11 12 12 12 13 13 10 5 1 353 339 323 312 304 296 290 287 285 285 284 280 277 275 270 265 260 254 251 245 240 238 237 237 240 241 242 243 239 236 233 230 228 226 224 223 221 219 221 221 219 219 220 219 214 212 214 216 217 217 217
45 41 39 38 38 39 41 41 37 32 28 26 26 27 25 25 25 25 23 20 19 21 21 16 11 10 11 11 11 11 12 9 6 3 1 353 340 325 314 304 297 293 290 287 286 284 280 274 270 266 262 257 252 247 242 240 236 235 237 241 245 246 244 241 235 229 227 226 222 221 222 222 223 223 223 221 218 217 217 213 211 212 213 213 213
42 39 37 37 40 43 43 41 39 35 29 25 25 27 28 28 27 24 21 19 20 23 23 18 13 12 12 12 11 11 10 9 7 5 3 0 353 341 327 316 305 299 295 290 286 287 283 276 270 265 261 257 254 249 244 239 235 233 235 239 244 247 246 244 238 231 229 228 224 224 225 226 224 222 221 220 217 217 217 213 207 206 210 213 214
41 40 37 34 38 44 43 42 42 39 32 26 23 26 30 31 29 23 18 17 21 25 24 20 17 15 14 13 12 11 10 8 6 5 4 5 2 352 339 329 319 304 296 291 288 289 287 278 270 264 257 255 253 249 243 238 233 232 235 239 243 245 246 246 241 234 232 229 225 225 226 225 224 224 224 223 219 216 214 213 209 205 207 213 217
44 40 36 33 35 42 44 43 43 42 36 28 24 26 29 31 31 26 17 16 23 27 24 21 18 16 14 13 11 10 8 6 5 4 4 6 7 3 353 343 333 320 306 294 287 287 287 281 274 267 260 256 254 248 243 238 234 232 234 237 242 245 247 245 237 232 234 233 228 228 229 226 224 225 225 222 220 217 215 214 213 208 206 212 218
46 40 36 33 34 39 44 42 41 40 36 29 27 29 30 29 31 30 22 20 27 29 26 23 21 18 16 14 12 10 7 4 3 2 3 4 6 8 5 357 348 338 327 310 290 281 280 280 278 272 264 259 256 248 242 240 239 236 234 235 240 243 243 240 233 228 233 235 231 230 230 226 224 224 223 220 218 217 217 216 214 210 210 215 218
47 41 36 33 32 35 40 41 40 39 33 29 28 29 29 27 28 29 27 26 31 33 30 27 26 24 21 20 18 15 12 8 5 2 2 1 3 6 8 5 360 353 343 331 314 290 277 274 274 270 264 261 257 250 243 241 241 239 235 235 240 241 238 237 235 233 235 237 236 233 229 225 225 226 226 224 220 217 215 212 211 212 214 214 213
49 46 37 32 30 32 35 37 39 36 31 28 27 27 27 26 26 28 28 28 31 33 31 30 29 27 25 22 20 18 15 13 9 6 4 3 2 4 6 6 6 4 357 347 335 318 297 278 269 264 260 256 251 246 244 242 239 236 234 235 238 239 237 235 233 231 234 237 236 232 227 224 222 223 225 225 223 220 215 209 211 215 213 207 204
51 48 37 30 29 32 35 36 37 35 31 29 29 28 26 26 26 27 28 28 29 29 30 29 28 27 26 23 21 18 16 13 11 9 8 6 4 3 3 4 6 6 3 357 348 335 321 300 278 265 258 251 242 237 239 242 239 235 232 232 233 234 234 231 225 222 223 224 222 222 224 223 218 217 220 220 217 216 213 209 209 210 208 205 202
51 45 34 28 29 34 36 36 36 37 33 30 30 30 28 27 28 28 27 26 27 27 28 28 27 26 26 24 22 19 17 15 12 10 9 8 6 4 2 2 5 6 4 0 357 349 335 320 300 277 262 254 244 236 236 241 241 238 234 231 230 230 230 228 223 218 214 210 210 214 216 216 214 214 217 220 218 215 211 210 209 204 203 203 201
50 44 36 33 32 33 33 33 35 39 37 31 30 30 29 28 29 29 28 26 25 27 28 27 26 25 24 23 22 20 17 16 14 11 10 9 8 5 3 2 4 4 3 1 1 360 352 340 326 305 280 260 247 237 233 236 239 240 237 234 230 227 224 222 219 216 210 204 206 210 210 210 212 213 214 218 223 220 215 215 217 214 211 209 204
51 46 44 40 33 29 29 31 35 39 38 33 30 30 29 28 29 30 29 27 25 25 26 26 24 23 22 21 21 19 17 14 13 11 11 11 10 8 6 3 1 1 1 1 3 4 1 355 347 336 316 286 258 242 235 236 238 238 236 234 230 226 221 218 216 214 210 207 206 205 203 204 208 210 212 213 217 219 217 219 223 220 218 219 214
55 54 52 43 33 27 24 28 33 37 36 32 29 29 29 29 29 30 30 29 26 24 24 24 23 21 20 19 18 17 15 13 12 11 10 11 12 11 9 5 1 359 360 1 3 3 1 359 355 350 342 324 287 251 238 236 236 235 233 230 225 218 214 212 209 205 202 199 196 192 192 197 201 205 208 209 212 215 215 219 224 216 211 217 218
56 65 60 44 34 29 24 26 31 32 30 27 27 29 29 29 29 30 29 29 28 24 22 22 21 19 18 18 17 16 14 12 11 10 9 10 12 13 12 10 5 2 2 3 4 2 359 358 357 354 348 338 313 270 245 231 224 226 225 216 208 205 201 198 197 195 190 187 186 183 184 191 196 200 203 205 210 215 215 216 220 212 200 200 204
58 70 59 44 38 33 28 28 29 27 26 25 25 28 30 28 28 28 28 28 28 26 23 21 20 19 18 17 16 15 13 12 11 11 10 10 11 12 13 12 10 7 5 5 6 3 359 356 355 355 355 351 334 285 238 212 203 206 207 200 193 193 192 188 187 190 189 185 183 182 181 186 194 197 199 200 201 205 209 206 200 198 197 194 191
59 67 56 48 48 38 29 30 31 26 24 23 24 26 28 27 25 25 24 24 25 25 24 21 19 19 18 16 15 14 13 12 12 12 11 11 12 13 12 12 13 12 9 8 8 5 1 356 349 349 357 3 17 89 131 151 161 167 178 185 183 179 183 187 189 192 189 182 179 180 179 178 182 185 187 189 188 188 191 183 167 170 183 186 183
56 64 60 55 51 41 33 33 31 25 23 22 24 25 26 25 24 22 21 22 23 23 23 21 20 20 19 16 15 14 14 13 13 12 12 11 11 12 12 11 12 13 12 10 7 4 6 6 1 357 2 8 22 66 97 121 138 143 150 162 166 166 172 181 183 182 177 173 174 175 171 168 170 170 171 173 174 172 171 166 158 154 161 166 163
54 54 54 54 51 43 38 35 27 22 22 23 23 24 24 23 21 20 20 21 22 21 21 20 20 21 19 15 13 13 13 13 12 12 10 9 8 8 9 11 11 13 13 11 7 3 2 7 14 18 23 23 25 48 78 103 122 128 133 143 150 154 160 167 168 164 158 159 163 162 158 157 158 158 158 157 153 150 153 154 148 142 144 150 146
59 49 46 46 41 36 36 34 26 21 24 26 24 23 22 21 19 19 20 21 20 19 20 20 21 22 18 13 11 11 12 12 12 10 9 8 6 4 5 9 12 14 14 13 13 10 3 3 19 31 40 50 59 70 81 93 105 112 117 125 133 139 145 151 152 147 141 141 144 145 145 145 145 145 146 144 138 136 143 147 142 138 142 145 139
68 60 52 42 33 27 28 31 28 25 26 26 23 21 21 20 19 20 21 19 17 17 18 19 21 21 18 14 10 9 12 12 9 6 6 7 5 2 3 7 12 15 16 15 17 20 21 23 29 34 38 46 57 68 76 85 96 105 109 115 121 127 132 135 135 134 133 133 134 135 137 137 135 134 133 129 125 125 130 134 133 134 140 140 136
62 71 60 46 39 31 19 14 21 27 28 26 23 22 22 20 18 21 22 18 15 15 15 16 16 16 15 14 12 10 11 10 5 2 5 7 5 2 3 6 10 16 18 17 20 26 29 32 34 34 34 36 42 49 57 65 77 89 97 105 114 119 121 121 122 125 128 130 131 132 135 137 136 134 131 128 125 123 122 122 122 125 129 128 126
46 70 64 46 42 35 16 8 12 23 29 26 22 20 19 18 17 20 19 15 13 13 12 11 12 11 10 10 10 9 8 6 3 2 5 7 5 6 7 7 8 16 20 21 25 31 33 35 37 38 38 39 40 41 44 49 56 66 77 89 100 108 113 115 118 123 127 129 129 129 132 134 134 134 134 133 132 132 131 130 130 132 134 133 131
36 44 47 42 41 39 28 18 17 23 29 22 13 9 11 15 18 18 15 12 11 12 10 7 7 8 8 8 8 7 4 2 2 2 3 6 8 11 14 12 11 16 24 26 30 34 36 37 40 40 40 42 45 47 50 55 60 64 69 77 85 93 103 111 122 135 142 143 142 141 141 142 143 143 143 143 143 144 145 146 146 145 141 138 137
24 24 26 38 50 42 35 27 24 29 31 20 10 9 11 15 17 16 13 10 9 9 8 5 4 5 7 7 7 6 3 1 2 2 3 8 13 16 21 21 18 19 26 30 32 35 37 39 42 44 44 45 46 49 54 59 66 72 78 85 90 93 99 105 113 123 129 132 135 136 135 136 138 138 138 139 137 135 134 133 131 130 128 129 130
18 17 21 28 51 43 33 27 24 28 28 19 13 14 15 17 19 17 11 8 7 7 5 3 2 3 3 4 5 5 4 4 5 4 6 12 16 18 25 30 28 26 28 29 30 33 35 38 41 43 46 48 49 51 55 59 63 69 75 81 88 94 101 107 111 114 118 121 122 123 124 125 127 128 128 128 126 125 127 130 130 131 132 133 135
11 13 18 23 45 53 36 26 21 22 23 19 18 19 17 16 19 19 11 7 7 7 4 2 360 359 359 1 3 4 5 6 6 7 11 18 21 22 28 33 33 32 30 29 29 32 32 34 38 42 46 50 52 54 58 61 63 68 72 76 81 86 90 96 100 106 113 117 119 121 123 125 126 129 131 132 130 128 129 130 132 134 138 140 140
9 9 14 24 48 57 39 26 19 20 23 23 23 23 19 16 20 20 11 5 5 6 5 2 358 354 355 358 1 2 5 7 8 10 15 23 26 26 28 31 34 36 35 30 31 34 33 33 39 46 49 52 55 57 60 62 64 67 70 73 76 79 80 82 85 90 95 99 103 107 111 113 115 117 121 127 131 132 132 130 130 133 137 140 140
11 10 15 27 44 50 38 27 20 20 21 14 8 5 2 5 13 16 11 6 6 7 4 359 355 352 352 355 357 360 3 6 9 11 17 27 33 31 32 36 37 39 40 36 32 33 36 40 46 52 54 56 57 58 60 63 65 66 67 68 70 72 74 75 77 80 84 87 90 95 100 106 111 114 119 125 129 128 128 127 127 128 131 133 133
18 13 16 26 35 37 30 23 17 12 6 359 360 2 3 4 8 11 9 3 2 4 2 356 352 352 352 352 352 355 358 2 7 10 15 27 36 34 34 37 35 34 39 41 34 29 33 43 51 54 56 58 59 59 60 63 65 65 66 68 69 70 72 73 72 74 77 80 84 87 91 97 105 111 117 124 126 124 122 123 127 129 126 121 116
25 24 21 23 28 26 20 16 10 360 355 356 2 10 18 21 14 11 10 5 359 360 360 355 352 353 352 349 347 351 357 1 5 8 12 24 37 36 31 32 33 32 35 39 37 33 34 42 51 55 56 57 58 56 55 54 56 58 62 66 71 74 75 75 73 71 72 76 81 84 88 98 107 111 115 121 125 123 119 116 118 125 127 120 107
39 49 38 21 21 20 13 10 5 355 354 356 356 358 6 13 10 8 10 10 7 4 359 355 353 353 352 349 347 351 357 2 5 7 10 19 33 37 30 29 36 39 36 36 39 40 40 43 49 53 53 50 49 51 53 52 51 53 55 59 68 76 78 76 73 71 72 78 81 82 86 97 107 111 114 118 123 125 122 116 113 118 125 126 115
57 60 21 2 14 19 12 8 7 356 351 351 350 350 350 348 346 356 5 10 11 9 3 358 354 352 352 350 350 352 357 1 5 8 13 19 26 33 33 30 32 37 39 38 36 36 37 38 40 44 47 46 44 48 50 47 45 50 56 60 66 71 74 75 75 74 75 80 84 85 86 88 95 108 118 120 119 120 122 120 115 113 118 126 125
67 36 11 2 9 9 5 4 4 356 350 352 358 1 358 348 335 344 0 7 10 11 9 3 354 350 351 352 352 353 355 359 3 9 16 21 23 30 40 36 29 30 38 39 35 32 35 35 33 35 40 41 40 42 44 44 46 53 61 65 69 73 78 82 86 87 88 90 92 92 90 85 82 99 121 126 123 121 120 121 121 119 118 123 127
77 50 58 38 355 355 3 8 360 353 355 1 8 10 9 3 350 343 358 9 12 14 13 6 356 354 357 357 353 352 353 357 3 10 17 21 23 26 35 37 29 28 36 39 38 42 45 43 42 44 43 41 40 40 41 47 50 50 52 60 71 81 89 95 98 98 99 103 102 98 96 94 88 90 110 124 126 123 120 122 130 133 126 122 128
79 54 75 14 335 347 9 12 355 351 2 9 6 4 8 8 1 351 1 9 12 16 14 5 358 0 4 358 352 351 352 356 3 10 15 20 23 25 27 31 31 25 25 28 36 47 51 46 44 47 50 52 55 48 37 35 37 36 40 51 65 78 90 99 102 98 94 101 104 98 93 95 97 96 100 110 117 121 122 123 127 131 132 132 136
67 45 71 284 320 349 12 9 354 353 2 6 8 15 17 9 2 360 2 4 9 14 12 3 358 1 1 354 351 351 352 355 3 9 12 16 21 24 24 26 25 15 13 16 21 29 35 31 29 31 31 39 53 50 37 29 27 27 32 38 42 53 74 94 97 89 86 100 112 106 90 85 94 101 105 109 113 120 127 126 117 116 134 147 145
66 35 33 269 314 347 6 4 349 345 351 357 7 17 15 6 358 358 358 1 9 15 9 358 356 0 359 353 351 351 351 354 1 8 10 10 14 21 23 24 22 18 16 14 10 9 6 1 3 6 358 352 13 28 28 24 16 9 14 21 22 18 6 265 174 79 73 98 122 120 101 90 97 105 110 114 114 116 125 128 114 102 126 150 154
56 28 321 288 322 343 6 10 347 338 345 356 5 9 7 358 346 347 351 357 9 17 11 3 2 2 358 354 352 348 348 353 359 5 8 9 11 15 19 20 22 24 21 12 6 5 360 353 356 359 341 312 325 5 20 23 15 3 1 3 4 3 358 303 238 236 74 102 128 139 137 126 121 119 121 126 126 120 120 121 112 98 103 129 149
330 350 225 316 349 360 10 8 341 332 340 347 353 2 6 353 342 346 349 350 352 356 360 3 3 359 355 356 354 347 345 351 357 1 5 7 10 13 15 15 17 19 17 11 10 10 7 6 12 13 340 294 300 328 348 356 351 343 341 336 331 338 349 336 257 236 224 156 135 138 148 155 150 143 139 136 130 120 115 115 114 108 104 112 129
331 44 35 346 359 360 352 340 324 326 336 337 339 350 1 350 341 344 347 345 344 346 350 354 353 351 353 358 356 345 342 346 352 356 359 1 4 9 13 13 12 11 10 8 7 7 10 20 34 29 360 341 344 345 345 346 337 323 319 322 321 320 325 318 258 223 214 201 173 157 164 174 172 172 178 173 154 138 128 120 119 120 118 119 126
181 97 330 308 306 314 323 317 308 314 321 320 321 333 347 341 333 336 341 343 346 354 2 0 349 348 354 359 355 345 341 341 344 348 352 353 355 1 8 9 7 8 9 7 4 4 7 20 33 17 358 4 14 9 3 2 357 343 331 329 329 328 322 297 243 214 208 208 201 192 196 202 195 190 202 199 179 171 162 143 133 134 138 138 136
206 242 304 289 291 308 315 302 294 302 310 308 308 319 332 330 324 330 342 348 347 352 3 3 347 343 348 349 342 336 336 337 340 342 342 343 346 353 360 1 359 1 5 5 3 1 358 360 7 5 351 348 358 1 359 357 355 348 340 335 334 334 328 290 243 221 212 213 215 218 224 232 232 220 206 191 178 187 192 177 159 155 156 151 145